Location: Newark
(13.0328°N, 9.6142°E)
Time: 01:50:47
(UTC+00:00)

Envisat - Pass Details

Date: 26 October 2019
Orbit: 764 x 766 km, 98.1° (Epoch: 19 November)

Event Time Altitude Azimuth Distance (km) Brightness Sun altitude
Rises 18:37:23 0° 197° (SSW) 3,222 6.6 -24.8°
Reaches altitude 10° 18:40:14 10° 213° (SSW) 2,296 6.0 -25.5°
Maximum altitude 18:43:55 20° 261° (W) 1,691 5.5 -26.4°
Drops below altitude 10° 18:47:37 10° 308° (NW) 2,297 6.0 -27.3°
Sets 18:50:29 0° 324° (NW) 3,223 6.6 -28.0°
